Regional Weather Roundup
Issued by NWS

Home | Current Version | Previous Version | Text Only | Print | Product List | Glossary Off
Versions: 1 2 3 4 5 6 7 8 9 10 11 12 13 14 15 16 17 18 19 20 21 22 23 24 25 26 27 28 29 30 31 32 33 34 35 36 37 38 39 40 41 42 43 44 45 46 47 48 49 50

000
ASUS43 KMKX 240120
RWRWI

WISCONSIN REGIONAL WEATHER ROUNDUP
NATIONAL WEATHER SERVICE MILWAUKEE/SULLIVAN WI
800 PM CDT WED JUL 23 2014

NOTE: "FAIR" INDICATES FEW OR NO CLOUDS BELOW 12,000 FEET WITH NO
SIGNIFICANT WEATHER AND/OR OBSTRUCTIONS TO VISIBILITY.

WIZ001-002-006>008-014>016-023>028-240200-
NORTHWEST WISCONSIN

CITY           SKY/WX    TMP DP  RH WIND       PRES   REMARKS
SUPERIOR ARPT  CLEAR     64  55  71 NE5       30.18F
ASHLAND        CLEAR     67  57  70 CALM      30.20F
HAYWARD        CLEAR     71  55  56 E5        30.19F
SIREN          CLEAR     74  53  48 CALM      30.18S
RICE LAKE      CLEAR     73  53  49 N7        30.19S
LADYSMITH      CLEAR     71  56  58 N6        30.20S
EAU CLAIRE     CLEAR     75  56  51 NE5       30.16R
MENOMONIE      CLEAR     75  55  48 N6        30.17R
NEW RICHMOND   PTCLDY    73  56  54 NE3       30.18S
OSCEOLA        CLEAR     74  56  51 N5        30.19S
$$

WIZ003>005-009-010-017-018-240200-
NORTH CENTRAL WISCONSIN

CITY           SKY/WX    TMP DP  RH WIND       PRES   REMARKS
WOODRUFF       CLEAR     69  54  57 N5        30.20S
RHINELANDER    CLEAR     66  53  63 NE3       30.19F
EAGLE RIVER    CLEAR     65  50  57 NE5       30.20S
LAND O LAKES   CLEAR     65  50  58 N6        30.21S
PHILLIPS       CLEAR     67  50  54 N5        30.19F
TOMAHAWK       CLEAR     67  54  62 CALM      30.19S
MEDFORD        CLEAR     68  55  62 N6        30.18S
MERRILL        CLEAR     68  56  65 N6        30.17S
$$

WIZ029-030-035-036-043>047-240200-
CENTRAL WISCONSIN

CITY           SKY/WX    TMP DP  RH WIND       PRES   REMARKS
WAUSAU         CLEAR     72  52  49 N5        30.15S
MOSINEE        PTCLDY    70  55  60 VRB6      30.17F
MARSHFIELD     CLEAR     71  56  58 NE5       30.16S
STEVENS POINT  PTCLDY    70  52  52 NE5       30.16F
WAUPACA        CLEAR     73  52  47 NE3       30.16S
WAUTOMA        MOCLDY    74  54  49 NE7       30.15S
WISC RAPIDS    CLEAR     74  54  49 N5        30.16S
CAMP DOUGLAS   PTCLDY    73  61  64 CALM      30.15R
$$

WIZ011>013-019>022-031-037>040-048>050-240200-
NORTHEAST WISCONSIN

CITY           SKY/WX    TMP DP  RH WIND       PRES   REMARKS
ANTIGO         CLEAR     64  56  74 NE5       30.18S
STURGEON BAY   CLEAR     64  46  52 E7        30.17S
GREEN BAY      CLEAR     67  52  58 NE8       30.16S
MANITOWOC      CLEAR     63  51  65 CALM      30.17S
APPLETON       PTCLDY    72  48  43 E7        30.16S
CLINTONVILLE   CLEAR     70  52  52 E3        30.15S
OSHKOSH        CLEAR     70  53  54 E6        30.15S
$$

WIZ032>034-041-042-053>061-240200-
SOUTHWEST WISCONSIN

CITY           SKY/WX    TMP DP  RH WIND       PRES   REMARKS
LA CROSSE      PTCLDY    78  57  48 NW8       30.13F
SPARTA         CLEAR     73  56  53 CALM      30.15S
VIROQUA        FAIR      71  60  67 CALM      30.17S
BOSCOBEL       PTCLDY    77  59  53 CALM      30.14R
PRAIRIE DU CHI CLEAR     75  53  45 CALM      30.13S
PLATTEVILLE    FAIR      71  57  61 N5        30.16S
$$

WIZ056-057-062-063-064-067-068-240200-
SOUTH CENTRAL WISCONSIN

CITY           SKY/WX    TMP DP  RH WIND       PRES   REMARKS
BARABOO/DELLS  MOCLDY    71  55  56 CALM      30.15S
LONE ROCK      PTCLDY    74  62  66 N5        30.14R
WATERTOWN      CLEAR     66  56  70 E7        30.15S
MADISON        PTCLDY    71  55  56 NE7       30.14S
MIDDLETON      FAIR      73  55  53 E5        30.15R
MONROE         PTCLDY    70  57  64 NE3       30.14S
JANESVILLE     PTCLDY    72  55  56 E12       30.14R
$$

WIZ051-052-058>065-066-070>072-240200-
SOUTHEAST WISCONSIN

CITY           SKY/WX    TMP DP  RH WIND       PRES   REMARKS
MILWAUKEE      PTCLDY    61  51  70 N8        30.16F
WAUKESHA       PTCLDY    63  48  59 E8        30.18S
MILWAUKEE/TIMM CLEAR     64  46  52 NE7       30.18S
RACINE         CLEAR     61  53  75 N7        30.18S
BURLINGTON     CLEAR     60  50  69 E6        30.17S
KENOSHA        CLEAR     62  51  67 NE8       30.16S
FOND DU LAC    CLEAR     66  53  63 SE7       30.16S
SHEBOYGAN      CLEAR     61  50  67 NE6       30.17S
WEST BEND      CLEAR     61  46  59 NE7       30.17S
JUNEAU         CLEAR     65  51  60 E7        30.17S
$$

LSZ147-162-240200-
LAKE SUPERIOR

STATION/POSITION TIME  TEMP    WIND        PRES    WAVE
                       AIR SEA DIR/SP/G            HT/PER
                 (UTC) (F)     (DEG/KT/KT) (MB)    (FT/S)
$$

LMZ867-665-643>646-240200-
LAKE MICHIGAN

STATION/POSITION TIME  TEMP    WIND        PRES    WAVE
                       AIR SEA DIR/SP/G            HT/PER
                 (UTC) (F)     (DEG/KT/KT) (MB)    (FT/S)
$$

TC  - TEMPERATURE IN CELSIUS
VSB - VISIBILITY IN STATUTE MILES
WCI - WIND CHILL INDEX
HX  - HEAT INDEX



USA.gov is the U.S. government's official web portal to all federal, state and local government web resources and services.